GFSSGP_prec_cloud_258.txt.gz
Cloud_Cover
0 0 0 0 0 0 0 0 0 0 0 0 0 0 0 0 0 0 0 3 19 22 10 0 0 0 0 0 0 0 0 1 0 2 0 0 5 5 10 99 100 100 100 98 78 53 100 100 100
0 0 0 0 0 0 0 0 0 0 0 0 0 0 0 0 0 0 0 39 37 8 0 0 0 0 0 0 0 0 4 2 0 1 5 3 0 5 5 26 100 100 100 100 100 100 100 100 100
0 0 0 0 0 0 0 0 0 0 0 0 0 0 0 0 0 0 0 16 53 5 0 0 0 1 0 0 0 0 5 5 5 4 4 13 1 0 23 76 100 100 100 100 100 100 100 100 100
0 0 0 0 0 0 0 0 0 0 2 3 4 4 0 3 4 0 0 0 0 0 0 0 0 0 0 0 0 0 0 5 5 5 9 54 78 5 98 15 100 100 100 100 100 100 100 100 100
0 0 0 0 0 0 0 0 0 0 5 5 5 4 2 0 1 1 0 5 0 1 0 0 0 0 0 0 0 0 0 3 5 5 5 78 33 10 23 100 98 100 100 100 100 100 100 100 100
0 0 0 0 0 0 0 0 0 0 2 3 4 5 5 5 0 4 0 0 0 3 1 0 0 0 0 0 0 0 0 0 0 3 32 41 4 5 5 100 100 100 100 100 100 100 100 100 100
0 1 0 0 0 0 0 0 0 2 5 5 5 5 5 6 5 2 2 1 2 2 2 2 1 0 0 0 0 0 0 0 0 0 1 7 90 60 23 6 89 100 100 100 100 100 100 100 100
0 0 0 0 0 0 0 2 0 0 5 5 5 5 0 5 5 5 5 6 77 5 5 2 0 2 0 0 0 0 0 0 0 0 0 0 4 8 97 14 90 100 100 100 100 100 100 100 100
1 0 0 0 1 0 0 1 1 0 2 0 5 10 5 5 5 3 5 9 20 63 19 4 4 0 0 0 0 0 0 0 0 0 0 87 65 77 97 99 86 100 100 100 90 100 100 97 84
86 5 1 0 0 0 0 0 5 1 21 12 61 25 5 5 5 5 5 3 31 30 83 86 5 2 0 0 0 0 0 0 0 0 0 0 46 33 100 70 100 100 100 100 100 100 100 84 72
100 68 5 2 0 5 5 5 4 21 84 76 26 5 5 4 41 25 4 0 5 0 5 0 2 5 11 0 1 6 14 6 7 0 0 0 0 6 21 74 31 61 100 100 100 66 100 100 80
99 92 5 5 4 0 0 4 39 100 100 94 23 5 5 9 23 46 97 5 5 5 5 5 25 5 3 0 2 5 8 10 10 6 13 6 34 13 16 34 12 22 92 52 93 100 100 100 100
5 16 5 5 5 1 0 3 8 84 100 100 80 11 2 5 74 100 5 4 0 5 4 5 1 2 0 0 0 0 9 7 3 4 3 65 26 18 19 8 13 25 4 57 39 88 73 100 100
0 4 3 3 4 0 0 2 40 94 98 53 17 4 5 5 72 72 2 4 5 4 5 5 3 2 4 5 0 1 0 4 4 6 5 64 100 100 98 99 100 100 100 86 16 13 58 57 100
0 0 0 0 5 5 0 0 3 31 81 25 5 1 59 8 100 17 5 0 0 5 4 5 2 0 80 5 5 6 9 95 38 1 5 15 70 100 100 92 99 100 100 100 88 93 60 40 6
0 0 0 0 5 5 2 0 0 2 5 5 0 5 4 5 86 88 5 1 5 5 5 1 2 5 5 5 8 5 100 100 8 4 3 2 2 5 4 0 9 14 11 34 13 0 5 35 24
1 4 3 0 0 0 0 0 0 0 0 0 6 17 8 5 5 5 5 5 0 5 5 5 5 5 5 5 26 13 97 100 44 5 7 5 5 4 4 2 0 0 0 2 0 0 0 11 88
5 5 5 3 0 0 0 0 0 5 0 1 22 5 5 5 5 4 5 5 2 0 1 5 5 5 68 8 50 5 39 100 78 94 53 5 5 3 0 0 0 0 0 0 0 0 0 5 4
5 5 5 5 5 3 0 0 0 2 1 3 5 5 5 5 1 3 5 5 5 2 0 0 3 24 8 14 6 5 100 100 100 76 38 65 5 4 0 0 0 0 0 0 0 0 0 5 5
5 5 5 5 5 5 4 2 5 5 5 5 4 5 5 1 0 0 2 3 3 4 5 83 52 82 85 93 57 100 100 100 82 12 20 5 5 4 0 0 0 0 0 0 0 0 1 5 5
5 5 3 5 1 3 4 5 4 5 5 5 5 5 0 1 1 3 2 1 61 100 100 100 100 100 100 100 100 100 68 96 75 5 0 3 3 5 1 2 1 0 0 0 0 4 7 78 27
45 98 12 1 5 5 6 19 47 26 44 5 5 5 5 7 7 5 25 37 59 100 100 100 100 100 100 100 35 5 91 55 5 5 5 3 5 4 0 2 0 0 0 0 2 5 6 100 99
86 98 94 3 99 74 100 4 100 100 100 100 100 100 100 100 100 100 100 100 100 100 100 100 100 100 65 5 5 66 6 5 5 5 9 5 5 16 5 5 0 0 0 5 5 33 99 100 100
76 96 85 20 4 12 22 6 95 100 100 100 100 100 100 100 100 100 100 100 100 100 100 100 100 67 5 5 5 5 5 6 50 23 83 60 87 27 5 5 3 4 2 5 15 99 100 100 100
5 5 5 4 39 5 4 26 100 100 100 100 100 100 100 100 64 26 98 100 100 100 100 100 100 100 19 96 92 19 24 56 53 100 100 100 100 45 5 6 5 5 5 96 96 100 100 100 100
6 6 71 3 2 2 5 52 100 100 100 100 100 100 100 78 24 12 44 63 100 100 100 100 100 100 98 65 73 33 51 100 92 100 100 100 100 55 89 20 58 34 78 100 100 100 100 100 100
45 95 99 8 25 5 4 5 96 82 100 100 100 100 100 100 88 100 100 100 100 100 100 100 100 88 58 19 5 7 66 100 100 100 100 90 28 86 25 98 100 100 100 100 100 100 100 100 100
100 77 22 88 46 8 2 18 96 84 100 100 100 100 100 100 100 100 99 92 77 100 100 94 98 21 5 5 5 69 100 100 100 100 100 100 88 100 83 88 100 100 100 100 100 100 100 100 100
100 100 100 100 100 32 4 60 100 14 81 88 33 90 100 100 100 86 43 65 100 100 100 100 100 94 48 76 83 92 100 100 100 100 100 41 100 96 89 100 100 100 100 100 100 100 100 100 100
100 100 100 100 100 45 26 28 100 98 85 100 96 10 64 38 42 85 100 86 72 98 79 96 99 79 96 100 100 100 100 100 100 100 93 74 92 63 79 100 100 100 100 100 100 100 100 100 100

GFSSGP_prec_cloud_261.txt.gz
Cloud_Cover
0 0 0 0 0 0 0 0 0 0 0 0 0 0 0 0 0 0 0 0 0 0 0 0 0 0 0 0 0 0 0 1 2 5 4 2 1 21 3 6 5 93 99 99 57 12 87 84 100
0 0 0 0 0 0 0 0 0 0 0 1 0 0 0 0 0 0 0 7 0 0 0 0 0 0 0 0 0 0 0 3 4 1 3 54 14 11 0 13 33 45 100 96 88 62 34 24 22
0 0 0 0 0 0 0 0 0 0 0 6 3 4 2 0 0 0 0 29 0 0 0 0 0 0 0 0 0 0 0 0 0 5 0 4 3 5 1 0 0 16 100 100 98 63 100 100 100
0 0 0 0 0 0 0 0 0 0 0 0 0 0 0 0 0 0 0 1 0 0 0 0 0 0 0 0 0 0 0 0 0 0 3 2 5 2 5 100 97 3 33 100 100 98 92 100 100
0 0 0 0 0 0 0 0 0 0 0 5 1 2 0 0 0 0 0 0 1 0 0 0 0 0 0 0 0 0 0 0 0 0 0 0 4 4 3 98 100 100 52 16 100 100 100 100 100
0 0 0 0 0 0 0 0 0 0 5 1 0 0 0 0 0 0 0 0 0 0 0 0 0 0 0 0 0 0 0 0 0 0 0 0 0 0 5 8 11 60 100 99 96 94 98 100 100
4 0 0 0 0 0 0 0 0 0 0 0 3 2 0 0 0 0 0 4 5 5 4 0 0 0 0 0 0 0 0 0 0 0 0 0 0 3 2 21 73 99 96 100 100 100 100 100 100
47 1 2 2 0 0 0 0 0 0 0 5 13 13 6 5 2 0 0 2 2 1 1 4 5 0 0 0 0 0 0 0 0 0 0 0 0 0 0 5 26 100 100 100 100 100 100 100 80
8 43 53 6 5 2 1 0 1 4 5 3 12 4 3 5 1 5 4 24 4 1 1 5 5 5 0 0 0 0 0 0 0 0 0 0 0 0 15 12 8 48 100 100 100 100 100 100 89
98 43 6 5 5 1 5 5 5 4 5 8 5 5 4 5 5 6 5 69 0 4 34 3 5 5 1 0 0 0 0 0 0 0 3 0 9 40 2 61 16 4 27 100 100 100 100 100 94
2 99 40 5 5 5 4 1 2 10 47 100 99 5 8 5 5 5 28 66 5 5 5 5 4 4 5 0 5 24 19 13 12 0 0 1 1 5 18 18 42 15 3 22 62 100 100 100 100
0 2 30 5 4 5 5 5 0 78 75 58 99 7 5 5 5 5 6 3 1 2 5 5 5 5 4 1 13 1 16 14 17 16 18 7 27 21 27 38 9 17 12 6 28 88 20 65 100
0 0 1 5 0 2 4 5 5 8 38 48 47 5 5 3 1 4 6 3 1 1 3 5 5 5 3 0 0 3 17 12 8 11 5 25 29 24 21 25 47 50 20 5 5 24 6 84 34
0 0 0 2 5 0 5 5 4 0 2 14 13 5 1 0 4 3 5 5 30 6 5 5 5 5 5 5 5 9 3 4 5 5 5 5 24 95 100 100 100 100 100 99 95 24 5 8 43
5 2 0 0 0 4 1 4 2 0 0 0 0 0 0 0 0 5 3 5 5 5 5 5 5 3 1 0 2 0 4 1 5 5 26 6 11 34 11 41 96 61 51 88 100 100 100 88 69
5 5 3 1 2 0 0 0 0 0 0 0 0 0 0 5 5 5 5 5 5 5 5 5 5 5 22 7 5 5 5 100 100 97 37 5 5 5 5 4 1 0 44 25 20 31 21 23 10
5 5 5 5 5 5 5 3 0 0 0 0 0 0 0 0 4 2 5 4 5 5 5 0 4 5 7 5 12 14 88 100 100 100 79 5 2 0 3 4 3 1 0 0 0 0 0 0 0
5 5 5 5 12 12 5 5 5 0 0 0 0 0 0 0 0 4 0 0 1 0 0 0 4 2 5 33 99 20 100 100 98 14 5 5 0 3 4 0 0 0 0 0 1 0 0 0 0
5 1 1 5 5 5 5 5 5 5 5 0 0 4 0 0 0 0 0 0 0 0 4 5 54 5 5 100 100 100 100 96 24 5 0 2 0 0 0 0 0 0 1 0 0 0 0 0 0
49 5 5 5 18 71 5 4 5 5 5 5 3 0 1 0 3 0 0 0 13 80 100 100 79 21 6 5 64 56 100 93 5 3 0 0 0 0 0 0 5 14 4 0 0 0 5 0 0
16 6 5 4 5 100 64 29 3 4 5 5 5 2 5 1 3 0 4 12 5 12 10 21 12 17 5 17 4 5 17 100 69 3 0 0 0 2 3 4 28 71 12 4 14 6 5 3 0
5 2 2 1 2 76 100 89 100 5 24 69 33 5 5 5 2 0 0 5 5 5 5 5 42 56 10 4 68 78 80 100 94 2 5 4 5 4 5 54 87 100 100 76 91 9 5 5 3
5 5 0 0 0 1 90 4 94 100 100 24 5 5 5 5 5 4 0 0 0 2 7 5 14 64 100 71 49 57 100 50 5 5 5 5 5 5 5 88 100 100 100 100 100 98 47 5 5
0 0 0 2 3 4 5 5 82 100 100 8 0 5 42 91 100 98 6 8 70 90 78 17 33 100 97 75 8 100 69 64 73 7 21 5 5 8 34 100 100 100 100 100 100 56 33 5 5
6 2 3 5 5 2 4 5 52 75 100 80 5 61 10 11 5 5 5 5 72 98 100 100 100 100 50 12 54 54 38 83 37 12 60 66 45 92 100 100 100 100 100 96 67 100 64 71 66
7 16 28 3 4 18 6 9 71 6 100 100 100 100 100 68 27 15 7 30 13 52 100 100 100 100 100 100 98 100 92 70 68 30 6 5 82 100 100 100 100 100 100 96 100 99 95 99 100
5 22 90 7 10 22 79 100 100 8 99 100 100 100 100 100 100 100 100 100 100 100 100 100 100 100 100 97 94 70 95 97 99 67 45 44 30 100 100 100 97 100 96 100 100 100 100 100 100
100 39 37 43 23 5 5 27 100 86 100 100 100 100 100 100 100 100 100 100 100 100 100 100 100 100 96 70 100 100 100 100 81 53 57 89 100 97 89 40 70 100 100 100 100 100 100 100 100
100 88 100 100 100 72 0 62 100 100 97 100 100 48 76 99 100 100 100 100 100 100 100 100 100 100 99 93 88 91 78 86 88 37 97 100 91 42 36 18 77 51 100 100 100 95 100 100 100
100 100 100 100 100 89 5 27 100 94 91 92 100 100 100 100 100 100 100 100 100 100 100 100 100 100 100 100 92 99 44 40 99 100 71 98 99 33 21 27 86 85 78 100 100 100 100 100 100

GFSSGP_prec_cloud_264.txt.gz
Cloud_Cover
0 0 0 0 0 0 0 0 0 0 0 0 0 0 0 0 0 0 0 3 0 0 0 0 0 0 0 0 0 0 0 0 0 4 60 5 3 19 98 24 16 26 19 100 83 87 100 100 100
0 0 0 0 0 0 0 0 0 0 0 0 0 0 0 0 0 0 0 0 0 0 0 0 0 0 0 0 0 0 0 0 0 0 1 4 4 5 5 65 24 16 4 5 63 100 100 100 100
0 0 0 0 0 0 0 0 0 0 0 0 0 0 0 0 0 0 0 0 0 0 0 0 0 0 0 0 0 0 0 0 0 0 0 0 0 2 4 5 80 55 70 5 27 80 100 100 100
0 0 0 0 0 0 0 0 0 0 0 0 0 0 0 0 0 0 0 0 0 0 0 0 0 0 0 0 0 0 0 0 0 0 0 0 0 0 0 7 99 100 99 57 2 88 100 100 100
0 0 0 0 0 0 0 0 0 0 0 0 0 0 0 0 0 0 0 0 0 0 0 0 0 0 0 0 0 0 0 0 0 0 0 0 0 0 5 6 89 100 38 100 83 10 93 100 100
5 2 0 0 0 0 0 0 0 0 0 0 0 0 0 0 0 0 0 0 0 0 0 0 0 0 0 0 0 0 0 0 0 0 0 0 0 0 5 100 94 50 99 83 99 100 85 100 100
8 4 5 4 0 1 0 0 0 0 0 1 5 0 2 4 2 0 0 0 0 0 0 0 0 0 0 0 0 0 0 0 0 0 0 0 0 0 0 6 42 54 96 100 100 100 100 100 100
62 48 6 5 2 5 3 0 0 0 5 5 8 0 1 0 4 5 0 0 1 0 0 0 0 0 0 0 0 0 0 0 0 0 0 0 0 0 23 90 12 4 10 93 100 100 100 100 100
60 100 43 15 5 5 0 1 0 0 4 5 5 5 3 4 2 31 1 3 1 0 0 0 0 2 0 5 0 0 0 0 0 0 0 0 0 0 35 36 44 76 67 88 4 48 94 100 100
2 34 61 43 4 5 5 4 0 1 10 68 53 61 5 5 11 18 25 11 0 0 0 0 5 5 5 5 0 0 0 0 0 1 0 3 1 2 0 0 0 43 3 2 1 2 4 69 100
0 0 5 11 2 4 5 5 3 0 4 36 100 99 15 21 12 5 0 3 0 1 4 4 2 5 1 5 6 29 24 20 20 3 5 5 5 9 24 21 26 21 7 16 5 1 17 6 7
5 0 0 4 4 3 3 5 0 0 0 0 4 4 5 1 9 0 0 5 1 5 5 4 5 5 5 9 19 12 20 18 17 17 27 6 24 16 20 32 14 18 14 5 3 2 1 41 45
5 5 3 0 0 0 3 2 5 5 0 0 0 0 4 0 0 3 5 5 5 5 5 5 5 5 5 5 12 20 29 15 10 10 4 38 22 18 16 41 44 14 9 63 34 7 0 4 12
5 5 5 5 0 0 1 5 4 0 0 0 0 0 0 0 1 5 5 5 5 5 5 5 5 4 5 5 5 24 10 5 94 63 2 4 7 11 95 99 100 100 91 98 100 98 51 24 7
5 5 5 5 5 0 0 1 2 0 0 0 0 0 0 0 0 5 5 5 5 5 6 5 5 5 44 7 8 6 6 5 5 61 60 4 0 0 5 5 6 3 31 3 2 100 100 100 100
5 6 20 5 5 3 0 5 0 0 0 0 0 0 0 0 0 0 0 0 0 5 5 5 5 5 5 5 5 5 2 5 8 100 64 5 5 4 0 0 0 1 4 14 52 33 85 94 80
5 5 8 5 5 5 5 5 5 4 0 1 0 0 0 0 0 0 0 0 0 0 0 0 0 0 3 2 0 2 2 4 6 92 10 5 3 4 2 0 0 3 0 0 2 0 4 5 4
5 6 6 5 5 5 5 5 5 5 5 5 5 5 2 0 4 1 1 0 0 0 0 0 0 1 0 0 4 5 5 5 5 5 9 80 56 5 4 1 2 0 0 0 0 4 5 5 32
4 5 1 5 5 5 5 5 5 5 5 3 5 5 5 5 5 5 5 5 5 4 0 0 0 0 0 5 5 44 100 4 5 5 42 100 5 5 5 0 0 0 0 2 5 5 5 5 10
12 34 5 9 5 5 5 4 0 1 3 5 0 0 5 5 28 18 5 5 5 5 5 2 3 0 2 4 5 8 4 3 5 5 15 50 23 5 5 0 0 0 0 0 5 5 5 8 5
93 91 81 18 5 5 5 5 4 1 5 42 5 1 5 4 5 5 4 4 5 4 4 1 4 5 2 1 0 4 5 38 8 16 86 32 5 5 9 10 20 49 5 5 4 24 86 37 5
5 5 5 29 5 5 3 92 56 5 5 0 0 5 5 0 0 0 0 5 0 1 0 0 0 5 93 82 32 77 100 97 99 100 38 62 59 100 89 62 34 5 5 5 5 27 8 5 5
5 5 5 5 5 21 2 78 100 100 16 0 0 3 1 5 0 0 0 0 0 0 0 0 5 3 5 14 78 100 100 100 91 66 100 93 81 18 5 14 5 5 5 5 66 6 5 5 46
5 5 5 5 5 40 7 5 100 100 100 100 20 2 3 0 0 0 0 0 0 0 0 5 5 5 5 7 22 70 44 94 100 90 46 8 30 60 14 11 5 5 5 5 2 2 5 5 99
5 5 26 36 5 51 81 51 100 16 94 100 100 100 68 12 1 0 1 0 0 0 0 5 5 5 5 5 71 100 100 100 100 100 99 88 87 100 100 43 5 5 20 8 5 6 40 63 43
5 5 5 2 21 92 100 100 100 100 100 100 100 100 100 100 66 4 2 2 2 3 5 5 18 7 88 100 100 100 100 100 100 100 100 100 100 96 50 28 5 5 6 5 5 5 5 5 21
5 7 5 0 5 29 43 96 100 53 99 100 100 100 100 100 100 100 100 100 100 100 100 100 100 100 100 100 100 100 100 100 100 100 100 100 53 98 34 18 40 49 20 72 61 64 47 77 99
96 56 75 100 56 7 3 28 100 100 100 100 100 100 100 100 100 100 100 100 100 100 100 100 100 100 100 100 100 100 100 95 100 96 96 88 100 92 54 90 52 48 37 65 58 74 78 48 95
100 100 100 100 100 100 6 82 100 100 100 100 100 100 99 100 100 100 100 100 100 100 100 100 100 100 100 100 100 100 100 100 100 90 97 100 100 100 96 99 100 100 89 87 81 90 94 100 100
100 100 100 100 100 22 75 85 100 100 100 84 100 100 100 100 100 100 100 100 100 100 100 100 100 100 100 100 100 100 100 100 100 100 100 100 100 100 93 93 99 96 97 67 97 98 98 100 100

GFSSGP_prec_cloud_267.txt.gz
Cloud_Cover
0 0 0 0 0 0 0 0 0 0 0 0 0 0 0 0 0 0 0 0 0 0 0 0 0 0 0 0 0 0 0 0 0 0 0 3 4 1 5 94 68 82 41 100 94 93 97 51 74
0 0 0 0 0 0 0 0 0 0 0 0 0 0 0 0 0 0 0 0 0 0 0 0 0 0 0 0 0 0 0 0 0 0 0 0 0 0 2 17 64 34 100 100 100 97 5 21 30
0 0 0 0 0 0 0 0 0 0 0 0 0 0 0 0 0 0 0 0 0 0 0 0 0 0 0 0 0 0 0 0 0 0 0 0 0 0 0 5 1 5 68 95 100 100 29 8 31
0 0 0 0 0 0 0 0 0 0 0 0 0 0 0 0 0 0 0 0 0 0 0 0 0 0 0 0 0 0 0 0 0 0 0 0 0 8 2 5 100 84 100 100 100 98 92 5 5
5 1 2 0 0 0 0 0 0 0 0 0 0 0 0 0 0 0 0 0 0 0 0 0 0 0 0 0 0 0 0 0 0 0 0 0 0 1 5 5 5 78 99 100 100 100 100 58 62
5 5 5 5 4 0 0 0 0 0 0 0 0 0 0 0 0 0 0 0 0 0 0 0 3 0 0 0 0 0 0 0 0 0 0 0 0 0 0 4 5 5 63 38 96 100 100 100 100
5 5 5 5 4 5 2 0 0 0 0 0 0 0 0 0 0 0 0 0 0 0 0 0 0 0 0 0 0 0 0 0 0 0 0 0 0 0 0 0 4 6 42 9 51 65 76 100 100
5 5 5 5 5 4 5 2 0 0 3 0 0 0 2 0 0 7 4 0 0 0 1 0 0 0 0 0 0 0 0 0 0 0 0 0 0 0 0 3 0 88 6 14 98 99 25 55 100
0 18 14 5 5 0 0 0 4 0 5 2 5 12 2 0 16 43 34 9 0 0 0 1 0 0 0 0 4 0 0 0 0 0 0 0 0 0 0 54 75 3 7 30 50 16 9 65 89
0 0 5 5 5 0 0 0 0 0 0 0 2 98 99 10 76 97 43 3 11 2 0 5 0 0 0 0 0 0 0 0 4 1 0 3 2 2 0 0 2 0 1 0 1 0 0 0 3
1 0 0 2 2 4 0 0 0 0 0 0 0 41 13 46 66 68 44 1 0 5 0 0 0 0 0 0 0 0 5 1 0 48 19 5 4 1 11 6 3 1 0 3 3 0 6 16 31
5 3 5 0 0 0 0 0 0 0 0 0 0 0 10 40 32 27 20 6 0 0 0 0 0 0 1 5 9 7 5 3 13 20 36 6 17 18 18 21 16 5 1 3 5 0 4 2 0
56 5 3 5 0 0 0 0 0 0 0 0 0 0 0 0 5 0 0 0 0 0 3 1 5 5 5 5 23 36 32 5 0 1 11 40 30 24 12 5 6 3 2 4 0 0 2 0 4
51 82 9 5 5 5 5 4 0 0 0 0 0 0 0 0 0 0 0 0 0 4 5 5 5 5 5 5 5 35 15 5 0 0 0 0 6 14 9 3 0 5 7 1 17 6 75 74 39
7 32 5 5 9 5 5 5 5 5 0 0 0 0 0 0 0 0 0 0 0 2 5 8 5 5 5 5 5 29 5 4 0 0 0 0 1 4 5 4 4 2 2 0 0 3 0 4 88
5 3 48 57 25 19 5 5 5 5 5 5 5 5 4 1 0 1 0 0 5 0 4 5 5 4 5 4 4 0 1 0 0 0 0 0 4 5 90 49 4 0 0 0 0 2 11 28 43
1 4 5 5 14 12 8 5 5 5 5 5 6 5 5 5 5 5 5 6 6 5 5 0 2 3 3 0 1 0 0 0 0 0 0 0 3 2 8 44 5 2 5 0 2 0 0 1 0
5 2 5 5 21 70 90 5 5 0 0 5 5 4 5 5 25 5 5 22 5 30 6 20 5 5 4 3 0 0 3 3 0 0 0 0 0 0 1 3 2 1 0 0 1 0 0 0 0
5 5 2 69 66 99 26 1 5 5 2 0 0 5 1 5 12 6 45 23 42 59 26 25 5 13 6 5 5 1 0 0 4 0 4 3 0 1 3 1 5 4 5 1 0 3 1 0 0
5 5 5 50 18 60 5 5 5 54 5 2 0 0 5 5 48 74 5 5 5 5 23 11 10 5 5 3 0 0 0 0 0 0 4 4 5 5 5 5 5 5 4 5 5 5 5 0 0
5 5 5 19 64 10 41 11 5 4 5 0 0 2 5 5 5 8 7 5 9 5 5 5 5 5 5 4 2 5 3 4 5 5 5 5 21 9 8 100 92 8 6 5 5 5 3 0 0
5 5 5 38 53 40 91 96 6 5 0 0 0 39 5 7 2 5 5 5 5 5 5 5 0 0 0 0 4 5 5 2 5 5 6 69 52 74 100 100 100 100 100 79 5 5 4 0 2
5 5 14 72 21 54 13 100 100 11 0 0 5 34 5 5 5 4 0 0 0 3 5 0 2 0 4 5 5 5 5 5 6 80 33 13 23 100 100 100 100 100 94 87 44 5 5 5 5
56 5 15 27 46 100 6 87 100 100 100 100 92 5 2 1 4 5 5 4 0 0 0 2 0 0 5 5 5 5 5 14 77 99 100 47 93 100 87 58 29 94 96 73 13 5 6 5 5
6 10 6 49 23 100 43 96 100 51 65 100 100 100 58 20 3 0 0 0 0 1 5 20 41 61 43 5 5 7 87 100 100 100 100 100 100 100 100 100 100 100 74 14 14 28 6 5 19
59 14 83 3 5 5 100 100 100 100 80 98 100 100 100 95 99 76 6 5 6 22 51 43 8 30 24 77 73 100 100 100 100 100 100 100 100 100 100 100 100 100 100 90 59 69 38 54 30
51 16 32 5 3 75 72 100 100 100 100 100 100 100 100 100 83 6 5 6 77 88 98 100 100 95 100 100 100 100 100 100 100 100 100 100 100 100 100 100 100 100 99 96 81 100 87 98 84
100 99 27 52 8 5 92 47 100 100 100 100 100 100 100 100 100 100 100 100 100 100 100 100 100 100 100 100 100 100 100 100 100 100 100 100 100 100 100 100 99 92 88 100 100 100 99 100 100
100 100 100 100 100 91 5 80 100 100 100 100 100 100 38 51 69 100 100 100 100 100 100 100 100 100 100 100 100 100 100 100 100 100 100 100 100 100 100 100 100 100 100 100 100 100 96 98 100
100 100 100 100 99 89 100 100 100 100 100 100 100 100 25 57 99 98 100 100 100 100 100 100 100 100 100 100 100 100 100 100 100 100 100 100 100 100 100 80 100 100 100 99 96 70 96 100 98

GFSSGP_prec_cloud_270.txt.gz
Cloud_Cover
0 0 0 0 0 0 0 0 0 0 0 0 0 0 0 0 0 0 9 3 16 26 15 1 0 0 0 0 0 0 0 0 0 0 1 0 0 2 7 5 2 1 9 14 17 93 47 22 79
0 0 0 0 0 0 0 0 0 0 0 0 0 0 0 0 0 0 0 5 10 3 0 37 0 0 0 0 0 0 0 0 0 0 0 1 3 8 5 6 21 36 45 99 100 99 100 100 100
0 0 0 0 0 0 0 0 0 0 0 0 0 0 0 0 0 0 0 3 4 10 16 27 0 0 0 0 0 0 0 0 0 0 0 0 0 3 99 99 73 84 39 94 100 100 100 100 100
0 0 0 0 0 0 0 0 0 0 0 0 0 0 0 0 0 0 0 0 4 16 23 2 0 0 0 0 0 0 0 0 0 0 0 0 0 0 5 100 100 100 100 100 100 100 100 100 100
5 0 5 0 0 0 0 0 0 0 0 0 0 0 0 0 0 0 0 0 5 22 27 22 0 4 0 0 0 0 0 0 0 0 0 0 0 0 0 8 97 98 100 100 100 100 100 95 100
0 2 5 5 0 0 0 0 0 0 0 0 0 0 0 0 0 0 0 0 19 4 21 34 2 0 0 0 2 2 0 0 0 0 0 0 0 0 0 0 5 75 88 61 65 62 75 71 98
0 4 5 5 5 4 0 0 0 0 0 0 0 0 0 0 0 0 0 0 0 0 0 5 3 7 0 0 0 0 0 0 0 0 0 0 0 0 0 0 0 2 5 4 5 5 8 14 41
0 5 5 5 5 5 4 4 5 2 0 0 0 0 0 4 4 0 1 0 0 0 0 0 0 0 0 0 0 0 0 0 0 0 0 0 0 0 0 0 0 4 4 6 0 0 0 2 5
0 0 2 5 18 33 4 3 0 0 0 0 0 0 34 9 8 4 0 22 0 0 0 0 0 0 0 0 3 0 0 0 0 0 4 0 3 0 1 22 4 0 0 0 0 0 0 0 2
5 0 3 0 4 5 5 2 0 0 0 0 0 0 29 100 25 1 2 0 0 0 0 0 0 0 0 0 0 0 0 0 0 0 0 5 3 0 0 2 0 0 0 0 0 0 0 0 10
4 5 5 5 1 5 4 3 0 0 0 0 0 0 0 0 0 3 5 5 0 0 0 0 5 2 1 0 0 0 0 0 0 0 0 7 3 6 5 16 20 34 5 17 0 0 0 5 17
5 5 5 5 5 0 0 4 5 0 0 0 0 0 0 0 0 0 0 2 0 0 0 2 4 2 5 5 4 1 2 0 2 0 5 7 7 16 24 41 29 36 19 22 6 10 19 0 0
5 5 5 5 5 5 5 5 5 5 0 0 0 0 0 0 0 0 0 0 0 0 0 0 2 2 1 4 4 5 10 4 5 4 6 16 26 37 39 46 40 44 18 25 30 21 13 19 10
5 5 5 5 44 5 8 17 5 5 2 3 2 0 0 0 0 0 0 0 0 0 1 0 0 0 0 3 6 7 4 0 0 0 0 0 6 9 0 0 2 5 0 5 1 0 0 1 6
5 0 3 3 27 47 29 15 5 5 4 5 0 0 0 0 0 0 0 0 0 5 2 4 5 5 5 5 7 16 6 5 5 0 0 0 0 0 0 0 0 0 1 0 0 0 4 4 1
5 0 0 2 5 12 89 84 42 60 4 0 0 0 0 0 0 0 0 0 5 5 5 7 10 7 5 5 5 7 5 2 0 0 0 0 0 0 0 0 0 0 0 0 0 0 2 4 5
5 1 4 1 5 5 10 27 10 5 0 2 0 2 0 5 5 5 5 5 5 8 8 5 15 73 84 84 52 32 6 4 4 1 0 0 0 0 0 0 0 0 0 0 5 2 5 0 2
4 2 5 2 2 5 75 4 7 8 0 4 0 2 3 43 50 26 82 93 50 74 33 11 87 55 18 34 7 12 38 24 14 5 5 5 4 2 0 4 3 2 1 3 82 56 5 5 5
5 5 5 5 5 5 64 2 5 4 3 2 0 0 4 5 7 7 68 99 94 79 58 33 30 5 8 38 36 16 5 5 5 5 4 5 4 1 3 5 5 5 5 5 33 100 100 100 100
5 5 5 5 37 7 5 2 5 6 5 0 0 0 1 6 5 5 14 11 49 5 5 5 15 5 5 5 4 3 0 0 1 2 0 0 1 4 5 4 5 5 5 8 40 48 11 16 14
5 5 31 26 69 56 23 7 1 0 0 0 0 0 1 5 5 6 5 5 5 5 20 5 6 5 5 5 5 4 4 5 6 5 5 5 3 7 5 90 98 25 5 5 15 34 27 5 5
5 5 60 33 99 100 98 84 4 2 0 0 0 5 1 0 5 3 5 5 5 5 6 5 5 5 5 6 5 29 61 61 30 68 25 5 80 63 100 100 16 12 6 99 60 60 81 70 22
77 53 12 94 100 93 19 100 100 3 0 0 0 3 5 3 0 5 5 5 5 5 27 94 81 28 5 31 7 11 30 98 100 96 100 100 100 100 93 39 81 82 11 54 97 100 100 100 88
55 59 79 76 61 100 12 100 100 88 91 26 5 4 0 0 0 1 5 4 5 5 25 18 6 5 8 5 22 20 95 100 100 100 100 100 100 83 53 80 96 85 96 100 100 100 100 100 99
9 5 19 54 16 100 52 74 100 95 100 100 71 5 1 0 0 2 5 5 5 5 5 5 4 5 5 14 12 8 45 88 100 100 100 100 72 78 78 99 74 100 100 100 99 100 100 100 100
67 5 25 49 5 11 100 96 100 100 100 100 100 40 5 5 54 7 5 5 5 5 5 5 5 5 5 29 86 100 98 99 71 91 80 70 5 72 100 100 100 100 100 100 100 100 100 86 93
99 98 7 4 39 66 100 100 100 100 100 100 100 100 100 100 100 100 76 73 57 100 100 100 100 100 91 100 97 100 100 99 100 100 92 47 50 100 100 100 100 100 100 100 100 100 74 74 100
100 100 100 83 4 5 84 85 100 100 100 100 100 100 100 100 100 100 100 100 100 100 100 100 100 100 100 100 100 100 100 100 100 100 100 100 100 100 100 100 100 100 100 100 100 100 100 100 100
100 100 100 100 100 54 5 22 99 100 100 90 100 29 83 100 100 100 100 100 100 100 100 100 100 100 100 100 100 100 100 100 100 100 100 100 100 100 100 100 100 100 100 99 100 100 100 100 100
100 100 100 75 74 15 19 64 100 94 7 5 51 12 7 21 100 100 7 29 100 100 100 100 100 100 100 100 100 100 100 100 100 100 100 100 100 100 100 100 100 100 100 100 100 100 100 100 100

GFSSGP_prec_cloud_273.txt.gz
Cloud_Cover
0 0 0 0 0 0 0 0 0 0 0 0 0 0 0 0 0 2 4 5 80 100 44 2 0 0 0 0 0 0 0 0 0 0 0 0 0 0 1 2 63 26 1 0 5 50 100 93 61
0 0 0 0 0 0 0 0 0 0 0 0 0 0 0 0 0 0 0 0 6 12 6 19 0 0 0 0 0 0 0 0 0 0 0 12 7 5 31 24 62 99 99 20 1 7 64 100 100
0 0 0 0 0 0 0 0 0 0 0 0 0 0 0 0 0 0 1 0 0 0 0 5 0 0 0 0 0 0 0 0 0 0 0 1 4 60 100 100 100 43 12 22 56 100 100 80 10
0 0 0 0 0 0 0 0 0 0 0 0 0 0 0 0 0 0 0 0 0 0 32 0 0 0 0 0 0 0 0 0 0 0 0 0 0 0 68 100 100 100 100 100 100 100 74 96 100
1 0 1 0 0 0 0 0 0 0 0 0 0 0 0 0 0 0 1 0 0 0 22 19 5 4 9 0 0 1 0 0 0 0 0 0 0 0 2 4 10 83 100 100 100 100 100 95 100
0 0 4 4 0 0 0 0 0 0 0 0 0 0 0 0 0 0 0 0 0 0 74 46 0 0 0 0 0 0 0 0 0 0 0 0 0 0 0 0 0 1 4 10 25 74 27 13 18
0 0 4 5 5 0 0 0 0 0 0 0 0 0 0 0 0 0 0 0 0 0 1 37 36 38 2 0 0 0 0 0 0 0 0 0 0 0 0 0 0 0 2 0 21 1 0 1 3
0 0 1 0 5 5 2 0 0 3 0 0 0 0 3 3 5 5 1 0 0 0 0 4 30 24 16 1 0 0 0 0 0 0 0 0 0 0 0 1 0 0 40 48 0 0 0 0 0
0 5 5 2 0 4 5 5 1 0 0 0 0 0 0 23 83 30 5 7 4 0 0 6 18 28 36 88 4 0 3 0 0 0 0 0 97 76 37 22 0 0 0 0 0 0 0 0 0
2 1 5 5 5 4 5 32 5 0 0 0 0 0 0 5 76 50 9 82 86 1 0 0 0 0 6 1 0 15 2 2 12 8 17 28 49 32 57 0 0 0 0 0 0 0 0 0 100
5 5 4 0 5 5 5 5 3 4 0 0 0 0 0 0 4 0 0 0 10 5 0 0 0 0 0 0 3 7 6 10 14 19 22 29 26 10 22 91 83 90 34 92 62 28 12 13 10
5 5 2 0 1 9 18 5 5 4 0 0 0 0 0 0 0 0 0 0 0 0 0 0 0 0 0 0 0 0 0 2 10 16 6 18 29 32 96 100 100 100 100 88 62 40 24 2 6
5 5 2 0 0 1 9 48 65 9 5 2 0 0 0 0 0 0 0 0 0 0 0 0 0 0 0 0 0 0 0 0 5 12 17 15 34 99 100 99 74 87 49 34 39 32 32 28 24
5 5 5 0 0 0 5 5 53 53 5 5 0 0 0 0 0 0 0 0 0 0 0 0 0 0 0 0 9 1 0 3 0 4 3 11 23 24 11 7 1 0 0 0 0 0 4 1 1
32 19 5 0 0 0 0 4 69 8 5 2 0 0 0 0 0 0 0 0 0 0 0 0 1 5 5 5 5 8 5 15 5 5 3 5 5 5 5 5 5 5 0 5 1 0 0 0 4
66 16 61 0 0 0 5 10 5 86 5 0 0 0 0 0 4 4 3 5 5 5 6 5 6 22 40 49 40 17 12 11 5 5 5 5 4 0 4 5 5 5 5 0 0 0 0 0 0
100 22 74 0 0 0 1 0 72 16 4 0 0 3 0 4 5 1 5 5 5 11 84 32 39 40 15 13 22 10 13 16 5 4 3 4 4 1 5 5 0 5 5 5 1 0 4 5 2
55 30 17 2 2 2 0 4 4 4 4 0 0 0 0 5 4 5 5 10 5 5 5 9 5 10 29 50 45 32 22 5 5 3 5 0 0 5 5 0 5 5 5 4 21 5 3 0 2
5 6 5 5 5 3 5 5 5 1 5 1 0 0 0 0 5 5 5 20 16 13 5 5 5 5 9 23 16 62 49 5 5 3 5 5 0 5 4 5 5 5 5 36 17 90 5 5 0
5 5 39 5 5 5 5 5 5 5 5 0 5 0 0 0 0 5 5 7 40 51 8 5 5 5 5 5 79 63 37 5 5 5 14 5 5 5 5 5 5 7 100 100 92 5 5 5 1
31 33 100 86 96 5 5 3 5 5 5 2 3 0 0 1 4 3 1 3 6 7 6 5 5 5 5 4 5 4 5 5 6 8 5 16 19 7 13 5 65 62 90 69 45 5 5 5 5
10 12 60 100 100 21 5 3 5 16 3 4 5 0 0 4 5 5 5 5 5 5 5 5 5 0 1 5 5 3 5 5 5 13 23 36 7 9 5 8 37 9 42 16 26 63 28 5 5
86 15 98 100 100 100 14 100 100 63 9 0 0 0 0 0 0 4 5 5 5 5 5 5 5 5 5 5 8 56 10 6 42 5 20 5 5 7 53 51 23 69 74 83 52 61 92 61 25
20 48 62 65 93 100 18 14 100 68 97 37 0 0 1 0 0 0 1 5 5 5 37 19 5 5 5 15 100 100 100 72 100 79 100 66 22 32 72 90 100 100 95 79 85 100 75 50 84
5 5 31 26 21 100 59 51 100 100 100 19 5 5 27 5 5 0 3 0 0 1 5 4 5 5 5 83 96 48 60 77 100 100 100 100 61 70 100 100 100 100 100 100 100 100 100 100 100
5 5 10 85 24 6 68 93 100 100 62 93 43 5 4 5 5 5 5 5 5 5 5 5 5 5 5 8 38 5 7 91 98 100 100 100 61 85 100 100 100 100 100 100 100 100 100 100 100
99 50 40 5 5 13 70 100 100 100 100 100 100 100 100 96 6 10 21 17 5 7 8 9 54 90 100 100 82 100 100 100 100 100 100 99 88 100 100 100 100 100 100 100 100 98 100 100 100
100 100 100 100 81 31 95 100 100 91 100 100 100 100 100 100 100 100 100 100 100 100 100 100 100 100 100 100 100 100 80 98 95 97 100 100 100 100 100 90 100 100 100 100 100 100 94 100 99
100 100 100 100 100 100 97 97 100 100 100 100 100 100 100 100 100 100 100 100 100 100 100 100 100 100 100 100 100 100 100 100 100 100 100 100 100 100 100 100 100 100 100 98 100 100 100 99 100
41 100 100 100 100 62 99 97 88 94 50 78 100 100 100 100 100 100 100 100 100 100 100 100 100 100 100 100 100 100 100 100 100 100 100 100 100 100 100 100 100 100 100 100 100 100 100 100 100